Regional Weather Roundup
Issued by NWS Northern Indiana

Home | Current Version | Previous Version | Graphics & Text | Print | Product List | Glossary On
Versions: 1 2 3 4 5 6 7 8 9 10 11 12 13 14 15 16 17 18 19 20 21 22 23 24 25 26 27 28 29 30 31 32 33 34 35 36 37 38 39 40 41 42 43 44 45 46 47 48 49 50
225
ASUS43 KIWX 230510
RWRIWX

KIWX WEATHER ROUNDUP
NATIONAL WEATHER SERVICE NORTHERN INDIANA
100 AM EDT TUE MAY 23 2017

NOTE: "FAIR" INDICATES FEW OR NO CLOUDS BELOW 12,000 FEET WITH NO
SIGNIFICANT WEATHER AND/OR OBSTRUCTIONS TO VISIBILITY.

* THESE STATIONS ARE NOT UNDER NWS QUALITY CONTROL. THEY ALSO MAY NOT
  REPORT WEATHER SUCH AS PRECIPITATION OR FOG.

INZ001>027-230600-
NORTHERN INDIANA

CITY           SKY/WX    TMP DP  RH WIND       PRES   REMARKS
GARY*          LGT RAIN  63  51  66 S7        29.92S
VALPARAISO     CLOUDY    62  53  72 SW7       29.93S
MICHIGAN CITY* CLOUDY    59  50  72 SW5       29.93S
LAPORTE*       CLOUDY    61  52  72 SW5       29.94S
KNOX*          CLOUDY    59  43  55 S6        29.93F
SOUTH BEND     CLOUDY    61  50  67 SW6       29.93F
GOSHEN         CLOUDY    61  48  62 SW6       29.94S
MONTICELLO*    CLOUDY    61  51  67 CALM      29.94F
LOGANSPORT*    CLOUDY    59  52  77 S5        29.96F
ROCHESTER*     CLOUDY    63  50  63 SW6       29.95F
WARSAW*        CLOUDY    61  48  63 S3        29.94F
ANGOLA*        CLEAR     57  48  72 SW5       29.95S
FORT WAYNE     CLOUDY    58  50  75 SW5       29.96F
HUNTINGTON*    CLOUDY    58  51  77 CALM      29.96F
PERU/GRISSOM   CLOUDY    60  53  77 S7        29.94F
MARION*        CLOUDY    55  48  76 SW3       29.98S

$$
INZ028>050-230600-
CENTRAL INDIANA

CITY           SKY/WX    TMP DP  RH WIND       PRES   REMARKS
LAFAYETTE      CLOUDY    59  53  80 NW3       29.95S
KOKOMO*        CLOUDY    60  52  74 S6        29.97F
MUNCIE*        PTCLDY    61  47  59 S8        29.98F
INDIANAPOLIS   CLOUDY    60  48  64 S7        29.96F

$$
MIZ043>046-050>051-056>058-064>065-071>073-077>080-230600-
SOUTHWEST LOWER MICHIGAN

CITY           SKY/WX    TMP DP  RH WIND       PRES   REMARKS
BATTLE CREEK   PTCLDY    60  50  69 SW10      29.92S
BENTON HARBOR  PTCLDY    61  49  64 SW10      29.91S
COLDWATER*     MOCLDY    61  48  63 S5        29.93F
HILLSDALE*     CLEAR     55  46  71 S3        29.94F
HOLLAND        CLOUDY    60  51  72 SW17G24   29.90S
GRAND RAPIDS   CLOUDY    63  51  65 SW12      29.89S
KALAMAZOO      CLOUDY    59  48  67 SW6       29.92S
STURGIS*       PTCLDY    58  51  75 SW7       29.94S
THREE RIVERS*  FAIR      61  49  65 SW5       29.93F

$$
OHZ001>008-015>018-024>025-230600-
NORTHWEST OHIO

CITY           SKY/WX    TMP DP  RH WIND       PRES   REMARKS
WAUSEON*       FAIR      55  48  76 S7        29.96S
DEFIANCE       CLOUDY    55  47  74 S3        29.96F
FINDLAY        CLOUDY    57  47  69 S7        29.97F
TOLEDO EXPRESS PTCLDY    54  49  83 S5        29.96S
TOLEDO METCALF CLOUDY    56  49  77 S5        29.97S
LIMA           PTCLDY    55  49  80 S7        29.99S

$$
AND FOR LAKE MICHIGAN COASTAL AND OPEN LAKE BUOY OBSERVATIONS

STATION/POSITION TEMP    WIND        PRES    VSBY  WAVE
                 AIR SEA DIR/SP/G                  HT/PER
                 (F)     (DEG/KT/KT) (MB)    (MI)  (FT/S)
CALUMET HARBOR    62     200/  6/ 10 1012.0F
MICHIGAN CITY     62     190/  7/  8   N/A
BURNS HARBOR      62     220/ 12/ 16 1013.5F
SOUTH LAKE BUOY   51 45  230/ 14/ 14 1012.1          1/ 3
4 MI NW BRIDGMAN  57 54  240/  8/ 10 1013.1          3/ 4
MICHIGAN CITY     57 53  210/  8/ 10   N/A           1/ 4

$$
&&




USA.gov is the U.S. government's official web portal to all federal, state and local government web resources and services.